Location: Chateh
(58.6667°N, 118.6000°W)
Time: 09:16:15
(UTC+00:00)

PCSat - Pass Details

Date: 07 December 2023
Orbit: 784 x 791 km, 67.0° (Epoch: 01 March)

Event Time Altitude Azimuth Distance (km) Brightness Sun altitude
Exits shadow 11:27:53 27° 94° (E) 1,478 11.4 -36.9°
Drops below altitude 10° 11:31:22 10° 58° (ENE) 2,361 12.7 -36.4°
Sets 11:34:02 0° 48° (NE) 3,296 13.6 -36.1°
